Rbgn^[z[y[W
メイン
   新天体発見情報
     Comet P/2020 S6 (Leonard)
投稿するにはまず登録を

スレッド表示 | 新しいものから 前のトピック | 次のトピック | 下へ
投稿者 スレッド
佐藤裕久
投稿日時: 2020-11-2 22:44
モデレータ
登録日: 2005-6-12
居住地: 日本
投稿: 2143
オンライン
Comet P/2020 S6 (Leonard)

Gregory J. Leonardの通報によると、9月29.4日UT、シーイングが1".6において、Mt Lemmonの
1.5-m反射望遠鏡で得た30秒×4枚のCCD露出から、集光した約5"のコマを横切るp.a. 250-290°
に広く拡散した10"-12"の尾がある彗星を発見した。
小惑星センターのPCCP webpageに公表後、E. Bryssinck (Kruibeke, ベルギー, 10月10.07日,
Global Observatory "Telescope Live" の0.7-m f/6 反射望遠鏡, Almeria, スペイン; 乏しい
透明度(高層の雲)と月明かりにおいて、拡散し、不規則で中央集光のある約11"のコマと、p.a. 
223°に15"の短い尾が見える。5"の範囲による光度は20.5等であった)や佐藤英貴氏(東京都文
京区,10月11.3日, 60秒露出20枚のスタック, 0.43-m f/6.8 アストログラフ, Mayhill近郊, NM, 
遠隔操作:強く集光した6"のコマと、p.a. 250-280°に向かって20"の扇のような尾が見える。
5".7の円形範囲で測定した光度は19.3等であった)ら、他のCCD位置観測者によって彗星状と観
測された。

彗星機能の報告は次の通り:

OC   Date        Reporter           Coma    Tail    PA          Exposures
I52  2020-09-29  K. Wierzchos       12"
G96  2020-10-09  D. C. FUls          7"      26"    255
Z08  2020-10-10  E. Bryssinck       11"      15"    223          20x120s
L07  2020-10-10  E. Guido            6"                          24x120s
Z08  2020-10-12  E. Bryssinck       15"      17"    225-253      16x120s
H06  2020-10-11  H. Sato             6"      20"    250-280      20x60s
G37  2020-10-12  J. Bauer            2"      10"    230-250
204  2020-10-18  A. Aletti           7"       8"    260          30x60s

発見位置は次のとおり、

     2020 UT             R.A. (2000) Decl.       Mag.   Observer
     Sept.29.39584    3 37 05.57   +31 55 43.8   20.5   Leonard
          29.40104    3 37 05.90   +31 55 43.5   20.5     "
          29.40624    3 37 06.14   +31 55 42.0   20.1     "
          29.41146    3 37 06.40   +31 55 41.6   20.4     "

MPCの楕円軌道要素、位置推算表は次のとおり、

Orbital elements:
    P/2020 S6 (Leonard)                                                         
Epoch 2020 Nov. 7.0 TT = JDT 2459160.5                                          
T 2020 Nov. 23.61220 TT                                 Rudenko                 
q   1.8748571            (2000.0)            P               Q                  
n   0.14434770     Peri.  176.65397     +0.50979290     -0.82712122             
a   3.5991184      Node   242.57107     +0.78298921     +0.56003409             
e   0.4790788      Incl.   15.46037     +0.35642545     -0.04724725             
P   6.83                                                                        
From 107 observations 2020 Aug. 28-Oct. 20, mean residual 0".5.                 
                                                                                
    P/2020 S6 (Leonard)                                                         
Epoch 2027 Oct. 2.0 TT = JDT 2461680.5                                          
T 2027 Sept. 25.76329 TT                                Rudenko                 
q   1.8732999            (2000.0)            P               Q                  
n   0.14440587     Peri.  176.81899     +0.50854848     -0.82790677             
a   3.5981518      Node   242.49514     +0.78397965     +0.55881324             
e   0.4793716      Incl.   15.46663     +0.35602577     -0.04793890             
P   6.83                                                                        
From 107 observations 2020 Aug. 28-Oct. 20, mean residual 0".5.                 
                                                                                
    P/2020 S6 (Leonard)                                                         
Epoch 2020 Dec. 17.0 TT = JDT 2459200.5                                         
T 2020 Nov. 23.61415 TT                                 Rudenko                 
q   1.8748570            (2000.0)            P               Q                  
n   0.14433881     Peri.  176.65487     +0.50977996     -0.82712964             
a   3.5992662      Node   242.57107     +0.78299801     +0.56002133             
e   0.4791002      Incl.   15.46026     +0.35642461     -0.04725115             
P   6.83                                                                        
From 107 observations 2020 Aug. 28-Oct. 20, mean residual 0".5.                 
                                                                                
Ephemeris:
Date    TT    R. A. (2000) Decl.     Delta      r    Elong.  Phase   m1
2020 09 21    03 29 10.1 +32 08 26   1.2535  1.9536   119.4    26.6  19.4
...
2020 10 06    03 41 48.8 +31 31 09   1.1078  1.9215   131.4    23.0  19.1
...
2020 10 14    03 45 33.7 +30 42 22   1.0415  1.9076   138.6    20.2  18.9
...
2020 10 20    03 46 53.8 +29 51 06   0.9981  1.8988   144.5    17.7  18.8
2020 10 21    03 47 00.0 +29 41 18   0.9914  1.8974   145.5    17.3  18.8
2020 10 22    03 47 04.1 +29 31 09   0.9850  1.8961   146.5    16.8  18.7
...
2020 10 28    03 46 48.8 +28 22 44   0.9501  1.8891   152.8    13.9  18.7
...
2020 11 05    03 44 54.7 +26 32 39   0.9148  1.8818   161.6     9.6  18.6
...
2020 11 20    03 38 27.9 +22 22 51   0.8876  1.8751   177.2     1.5  18.5

(MPEC 2020-U151、CBET 4868)

スレッド表示 | 新しいものから 前のトピック | 次のトピック | トップ

投稿するにはまず登録を
 
© 1999 Tsutomu Seki.